TimeCDT,TemperatureF,Dew PointF,Humidity,Sea Level PressureIn,VisibilityMPH,Wind Direction,Wind SpeedMPH,Gust SpeedMPH,PrecipitationIn,Events,Conditions,WindDirDegrees,DateUTC
12:53 AM,63.0,32.0,31,29.95,10.0,Variable,5.8,-,N/A,,Clear,0,2012-10-14 05:53:00
1:53 AM,57.9,34.0,41,29.99,10.0,WSW,3.5,-,N/A,,Clear,240,2012-10-14 06:53:00
2:53 AM,57.9,30.9,36,29.99,10.0,West,6.9,-,N/A,,Clear,260,2012-10-14 07:53:00
3:53 AM,57.9,30.9,36,29.99,10.0,West,8.1,-,N/A,,Clear,260,2012-10-14 08:53:00
4:53 AM,57.9,32.0,37,29.99,10.0,West,8.1,-,N/A,,Clear,260,2012-10-14 09:53:00
5:53 AM,55.0,33.1,43,30.02,10.0,WNW,8.1,-,N/A,,Clear,290,2012-10-14 10:53:00
6:53 AM,55.0,33.1,43,30.04,10.0,West,8.1,-,N/A,,Clear,260,2012-10-14 11:53:00
7:53 AM,53.1,34.0,48,30.10,10.0,West,5.8,-,N/A,,Clear,260,2012-10-14 12:53:00
8:53 AM,57.0,35.1,44,30.13,10.0,West,6.9,-,N/A,,Clear,260,2012-10-14 13:53:00
9:53 AM,63.0,37.9,40,30.16,10.0,West,4.6,-,N/A,,Clear,280,2012-10-14 14:53:00
10:53 AM,68.0,39.0,35,30.17,10.0,Variable,5.8,-,N/A,,Clear,0,2012-10-14 15:53:00
11:53 AM,71.1,39.0,31,30.16,10.0,ENE,6.9,-,N/A,,Clear,60,2012-10-14 16:53:00
12:53 PM,73.0,37.0,27,30.14,10.0,Variable,4.6,-,N/A,,Clear,0,2012-10-14 17:53:00
1:53 PM,73.9,37.0,26,30.13,10.0,East,5.8,-,N/A,,Clear,100,2012-10-14 18:53:00
3:53 PM,78.1,34.0,20,30.08,10.0,NE,12.7,-,N/A,,Clear,50,2012-10-14 20:53:00
4:53 PM,78.1,33.1,19,30.06,10.0,ENE,10.4,-,N/A,,Clear,70,2012-10-14 21:53:00
5:53 PM,78.1,34.0,20,30.05,10.0,NE,8.1,-,N/A,,Clear,50,2012-10-14 22:53:00
6:53 PM,75.0,35.1,23,30.06,10.0,ENE,5.8,-,N/A,,Clear,60,2012-10-14 23:53:00
7:53 PM,68.0,37.0,32,30.07,10.0,East,3.5,-,N/A,,Clear,100,2012-10-15 00:53:00
8:53 PM,68.0,36.0,31,30.08,10.0,ESE,5.8,-,N/A,,Clear,120,2012-10-15 01:53:00
9:53 PM,66.0,36.0,33,30.10,10.0,SE,4.6,-,N/A,,Clear,130,2012-10-15 02:53:00
10:53 PM,62.1,39.0,43,30.11,10.0,SSE,5.8,-,N/A,,Clear,160,2012-10-15 03:53:00
11:53 PM,60.1,39.9,47,30.12,10.0,South,8.1,-,N/A,,Clear,170,2012-10-15 04:53:00